Location: Austin
(30.3000°N, 97.7500°W)
Time: 11:02:10
(UTC-05:00)

CZ-4B R/B - Pass Details

Date: 26 May 2023
Orbit: 808 x 881 km, 99.0° (Epoch: 30 May)

Event Time Altitude Azimuth Distance (km) Brightness Sun altitude
Rises 21:10:19 0° 176° (S) 3,316 5.9 -9.5°
Reaches altitude 10° 21:12:41 10° 180° (S) 2,384 5.3 -9.9°
Maximum altitude 21:17:50 56° 258° (WSW) 953 3.8 -10.8°
Drops below altitude 10° 21:23:02 10° 337° (NNW) 2,399 6.5 -11.8°
Sets 21:25:26 0° 342° (NNW) 3,338 7.2 -12.2°
